Details From LPPT - Lisboa
To LPLA - Lajes
Flight Number -
Tags Generated
Created
Modified
Stats Distance 840 nm / 1,555 km
Max Altitude 0 ft / 0 m
Waypoints 3
Social Downloads 0
Likes 0
Share VATSIM

Download

Looking for another format? Having issues loading an existing format? Contact us
Advertisement - Login to hide

Notes

Generated

Route

LPPT R2224 LPLA

ID Type Via Altitude Latitude Longitude Leg Dist Tot Dist Heading (true) Name
O LPPT APT - 0 ft / 0 m 38.78624˚ -9.13721˚ - 0 nm - -
R2224 FIX - 0 ft / 0 m 38.77595˚ -27.10555˚ 839 nm 839 nm 276° / 264° -
O LPLA APT - 0 ft / 0 m 38.77595˚ -27.10555˚ 0 nm 839 nm 0° / 180° -

Altitude Profile

Advertisement - Login to hide

Weather


0- 5 10 15 20 25 30 35+ Temperature / ° C

Clouds and Precipitation
Forecast for 2018-05-27 00:00 UTC. Updated 5 minutes ago

Ground ~20,000 ft ~40,000 ft Winds

LPPT

Details ICAO LPPT (LIS)
Name Lisboa
Region Portugal
Timezone Europe/Lisbon (UTC+1.0)
Stats Elevation 374 ft / 114 m (AMSL)
Location 38.778559° -9.135146°
Runways 2
Magnetic Variation 2.308° W

METAR

LPPT 262300Z 32006KT 280V350 9999 FEW012 16/14 Q1014

Decode

TAF

TAF LPPT 261700Z 2618/2724 32010KT 9999 SCT030 BECMG 2619/2621 34005KT FEW015 TEMPO 2702/2708 BKN010 BECMG 2708/2710 33010KT SCT020 BECMG 2714/2716 33015KT BECMG 2720/2722 33008KT SCT012

Decode

Departure Runways

ID Width Length Bearing (true) Bearing (mag) Surface Threshold Offset Overrun Length
03 148 ft / 45 m 12,518 ft / 3,815 m 22.70° 25.01° Asphalt 296 ft / 90 m 0 ft / 0 m
17 148 ft / 45 m 7,922 ft / 2,415 m 168.38° 170.69° Asphalt 0 ft / 0 m 0 ft / 0 m
21 148 ft / 45 m 12,518 ft / 3,815 m 202.72° 205.03° Asphalt 1,969 ft / 600 m 0 ft / 0 m
35 148 ft / 45 m 7,922 ft / 2,415 m 348.38° 350.69° Asphalt 492 ft / 150 m 0 ft / 0 m

LPLA

Details ICAO LPLA (TER)
Name LAJES
Region Portugal
Timezone Atlantic/Azores (UTC+0.0)
Stats Elevation 180 ft / 55 m (AMSL)
Location 38.764410° -27.093482°
Runways 1
Magnetic Variation 8.870° W

METAR

LPLA 262300Z /////KT 9999 FEW045 16/13 Q1028

Decode

TAF

TAF LPLA 261704Z 2618/2718 VRB05KT 9999 FEW025

Decode

Destination Runways

ID Width Length Bearing (true) Bearing (mag) Surface Threshold Offset Overrun Length
15 197 ft / 60 m 10,869 ft / 3,313 m 140.81° 149.68° Asphalt 0 ft / 0 m 991 ft / 302 m
33 197 ft / 60 m 10,869 ft / 3,313 m 320.82° 329.69° Asphalt 0 ft / 0 m 1,040 ft / 317 m

Approach Navaids

Runway Type Ident Frequency Range Bearing (true) Bearing (mag) Slope Elevation
15 Localiser DK 109.90 MHz 18 nm / 33 km 140.82° 149.69° - 180 ft / 55 m (AMSL)
15 Glidescope DK 109.90 MHz 10 nm / 19 km 140.81° 149.68° 3.00° 159 ft / 48 m (AMSL)
33 Localiser OZ 111.50 MHz 18 nm / 33 km 320.81° 329.68° - 158 ft / 48 m (AMSL)
33 Glidescope OZ 111.50 MHz 10 nm / 19 km 320.81° 329.68° 3.20° 180 ft / 55 m (AMSL)

Popular Alternatives